Flag for U.S.A. Weather past 2 weeks in Beaumont, Texas, U.S.A.

Now
50 °F

Sunny.


Feels Like: 46 °F
Forecast: 45 / 65 °F
Wind: 10 mph from North

Location: Jefferson County Airport

Current Time: Jan 26, 2015 at 8:44:46 AM

Latest Report: Jan 26, 2015 at 7:53 AM


Visibility: 10 mi

Pressure: 30.20 "Hg

Humidity: 54%

Dew point: 34 °F

Location of BeaumontLocation

Historic Weather in Beaumont — Graph

°F

Beaumont temperature yesterday

Maximum temperature yesterday: 70 °F (at 2:53 PM)
Minimum temperature yesterday: 41 °F (at 3:53 AM)
Average temperature yesterday: 55 °F

Past Weeks' High & Low Weather Summary

 TemperatureHumidityPressure
High74 °F (Jan 20, 1:53 PM)100% (Jan 11, 12:55 PM)30.39 "Hg (Jan 11, 12:55 PM)
Low33 °F (Jan 16, 4:53 AM)25% (Jan 18, 1:53 PM)29.93 "Hg (Jan 20, 2:53 PM)
Average50 °F79%30.16 "Hg
* Reported Jan 11 6:53 AM — Jan 26 6:53 AM, Beaumont, Weather by CustomWeather, © 2014

Note: Actual official high and low records may vary slightly from our data, if they occured in-between our weather recording intervals... More about our weather records

Advertising

Beaumont weather history for previous 24 hours

 ConditionsComfort  
Time TempWeatherWind HumidityBarometerVisibility
6:53 AM
Jan 26
48 °FClear.16 mph56%30.16 "Hg10 mi
5:53 AM48 °FClear.12 mph54%30.14 "Hg10 mi
4:53 AM51 °FClear.16 mph46%30.13 "Hg10 mi
3:53 AM51 °FClear.12 mph44%30.12 "Hg10 mi
2:53 AM53 °FClear.12 mph41%30.13 "Hg10 mi
1:53 AM55 °FClear.14 mph39%30.12 "Hg10 mi
12:53 AM56 °FClear.15 mph36%30.10 "Hg10 mi
11:53 PM
Jan 25
56 °FClear.13 mph37%30.10 "Hg10 mi
10:53 PM57 °FClear.15 mph34%30.09 "Hg10 mi
9:53 PM57 °FClear.13 mph34%30.08 "Hg10 mi
8:53 PM56 °FClear.9 mph44%30.06 "Hg10 mi
7:53 PM57 °FClear.8 mph53%30.03 "Hg10 mi
6:53 PM58 °FClear.8 mph60%30.00 "Hg10 mi
5:53 PM61 °FClear.8 mph52%29.96 "Hg10 mi
4:53 PM67 °FSunny.12 mph42%29.95 "Hg10 mi
3:53 PM69 °FSunny.14 mph38%29.96 "Hg10 mi
2:53 PM70 °FSunny.14 mph35%29.98 "Hg10 mi
1:53 PM69 °FSunny.14 mph35%29.98 "Hg10 mi
12:53 PM68 °FSunny.13 mph39%29.97 "Hg10 mi
11:53 AM68 °FSunny.12 mph40%30.00 "Hg10 mi
10:53 AM64 °FSunny.12 mph47%30.01 "Hg10 mi
9:53 AM57 °FSunny.14 mph60%30.02 "Hg10 mi
8:53 AM51 °FSunny.12 mph80%30.02 "Hg10 mi
Weather by CustomWeather, © 2014

See weather overviewHow to use our weather pages